Location: Colle Santa Colomba
(42.0333°N, 12.5667°E)
Time: 01:51:59
(UTC+00:00)

YAOGAN 3 - Pass Details

Date: 25 October 2021
Orbit: 624 x 627 km, 98.0° (Epoch: 05 December)

Event Time Altitude Azimuth Distance (km) Brightness Sun altitude
Rises 17:20:48 0° 162° (SSE) 2,898 7.9 -13.2°
Reaches altitude 10° 17:22:59 10° 161° (SSE) 1,996 7.0 -13.6°
Maximum altitude 17:27:20 79° 76° (ENE) 644 4.5 -14.4°
Drops below altitude 10° 17:31:42 10° 350° (N) 2,011 7.3 -15.2°
Sets 17:33:55 0° 349° (N) 2,923 8.1 -15.6°
